Date String (YYYY-MM-DD hh:mm:ss) UTC,Instrument flags,Ambient pressure (hPa),Sample flow (lpm),Bypass flow (lpm),Sample temperature (°C),Ambient temperature (°C),ASC tube jacket temperature (°C),LED temperature (°C),Box temperature (°C),Sample RH (%),Span deviation,Mass concentration (μg/m³),Mass concentration (μg/m³),Mass concentration (μg/m³)
DateTimeUTC,F1_M11,P_M11,Q1_M11,Q2_M11,T1_M11,T2_M11,T3_M11,T4_M11,T5_M11,U1_M11,ZSPAN_M11,X2_M11,X0_M11,X1_M11
2021-09-04 20:00:00,,0829.5,4.98,0.00,29.2,27.1,00.0,38.4,31.0,23.4,0001.7,0014.72,0020.04,0014.01
2021-09-04 20:01:00,,0829.5,5.00,0.00,29.3,27.5,00.0,38.4,31.1,23.0,0001.7,0014.73,0020.10,0014.05
2021-09-04 20:02:00,,0829.5,4.99,0.00,29.3,27.8,00.0,38.4,31.2,22.8,0001.5,0014.72,0020.36,0014.09
2021-09-04 20:03:00,,0829.5,5.00,0.00,29.4,28.1,00.0,38.4,31.2,22.9,0001.5,0014.80,0020.52,0014.17
2021-09-04 20:04:00,,0829.5,5.00,0.00,29.4,24.9,00.0,37.3,31.3,22.7,0001.3,0014.84,0020.62,0014.18
2021-09-04 20:05:00,,0829.5,5.00,0.00,29.5,28.6,00.0,38.4,31.4,22.6,0001.1,0014.83,0020.32,0014.15
2021-09-04 20:06:00,,0829.5,5.01,0.00,29.5,28.7,00.0,38.4,31.5,22.5,0001.2,0014.77,0020.08,0014.11
2021-09-04 20:07:00,,0829.5,4.98,0.00,29.6,28.7,00.0,38.5,31.5,22.3,0000.7,0014.73,0019.73,0014.08
2021-09-04 20:08:00,,0829.4,5.01,0.00,29.5,27.1,00.0,38.5,31.0,22.5,0000.8,0014.69,0019.68,0014.04
2021-09-04 20:09:00,,0829.5,5.00,0.00,29.4,25.8,00.0,38.4,30.7,22.7,0000.5,0014.66,0019.64,0013.99
2021-09-04 20:10:00,,0829.5,5.02,0.00,29.3,26.0,00.0,38.4,30.7,22.6,0000.4,0014.67,0020.55,0013.97
2021-09-04 20:11:00,,0829.5,4.99,0.00,29.2,26.5,00.0,38.4,30.8,22.2,0000.6,0014.66,0020.76,0013.94
2021-09-04 20:12:00,,0829.5,5.00,0.00,29.2,26.9,00.0,38.4,30.9,22.3,0000.6,0014.59,0021.39,0013.85
2021-09-04 20:13:00,,0829.5,4.99,0.00,29.2,27.3,00.0,38.3,31.0,22.2,0000.4,0014.56,0020.91,0013.79
2021-09-04 20:14:00,,0829.5,5.00,0.00,29.3,27.7,00.0,38.3,31.1,22.0,0000.4,0014.49,0021.03,0013.73
2021-09-04 20:15:00,,0829.5,5.00,0.00,29.3,28.0,00.0,38.3,31.2,21.9,0000.4,0014.48,0021.03,0013.73
2021-09-04 20:16:00,,0829.5,5.00,0.00,29.4,28.3,00.0,38.4,31.3,21.8,0000.5,0014.46,0021.37,0013.73
2021-09-04 20:17:00,,0829.5,5.01,0.00,29.4,28.5,00.0,38.4,31.3,21.8,0000.5,0014.46,0021.67,0013.74
2021-09-04 20:18:00,,0829.5,5.01,0.00,29.5,28.7,00.0,38.4,31.4,21.7,0000.8,0014.46,0021.94,0013.73
2021-09-04 20:19:00,,0829.5,4.99,0.00,29.6,28.8,00.0,38.4,31.5,21.6,0000.8,0014.46,0021.90,0013.71
2021-09-04 20:20:00,,0829.5,5.00,0.00,29.5,27.6,00.0,38.5,31.2,21.5,0001.2,0014.51,0021.94,0013.74
2021-09-04 20:21:00,,0829.5,5.01,0.00,29.4,26.0,00.0,38.4,30.8,21.8,0001.3,0014.57,0021.03,0013.76
2021-09-04 20:22:00,,0829.4,5.00,0.00,29.3,26.0,00.0,38.4,30.7,21.9,0001.1,0014.59,0020.87,0013.76
2021-09-04 20:23:00,,0829.4,5.01,0.00,29.3,26.4,00.0,38.4,30.8,22.0,0001.1,0014.59,0020.28,0013.77
2021-09-04 20:24:00,,0829.4,5.00,0.00,29.2,26.9,00.0,38.4,30.9,22.1,0001.3,0014.64,0020.69,0013.79
2021-09-04 20:25:00,,0829.4,5.01,0.00,29.3,27.3,00.0,38.3,31.0,22.0,0001.3,0014.66,0020.80,0013.80
2021-09-04 20:26:00,,0829.4,4.99,0.00,29.3,27.7,00.0,38.3,31.1,21.8,0001.3,0014.65,0020.69,0013.78
2021-09-04 20:27:00,,0829.3,5.01,0.00,29.3,28.0,00.0,38.3,31.2,21.7,0001.3,0014.67,0020.44,0013.78
2021-09-04 20:28:00,,0829.2,5.00,0.00,29.4,28.3,00.0,38.4,31.3,21.9,0001.3,0014.69,0020.36,0013.78
2021-09-04 20:29:00,,0829.2,4.99,0.00,29.5,28.5,00.0,38.4,31.4,22.1,0001.2,0014.71,0020.04,0013.80
2021-09-04 20:30:00,,0829.3,5.02,0.00,29.5,28.7,00.0,38.4,31.4,22.5,0001.1,0014.76,0020.56,0013.83
2021-09-04 20:31:00,,0829.3,4.98,0.00,29.5,27.9,00.0,38.4,31.2,22.9,0000.8,0014.75,0021.04,0013.82
2021-09-04 20:32:00,,0829.2,5.01,0.00,29.4,26.1,00.0,38.4,30.7,22.8,0000.6,0014.76,0020.98,0013.83
2021-09-04 20:33:00,,0829.3,4.99,0.00,29.3,25.9,00.0,38.4,30.6,22.6,0000.7,0014.80,0021.02,0013.86
2021-09-04 20:34:00,,0829.3,5.01,0.00,29.2,26.3,00.0,38.4,30.7,22.3,0000.6,0014.82,0021.42,0013.89
2021-09-04 20:35:00,,0829.3,4.97,0.00,29.2,26.8,00.0,38.3,30.8,22.1,0000.8,0014.81,0021.22,0013.92
2021-09-04 20:36:00,,0829.3,4.99,0.00,29.2,27.2,00.0,38.3,30.9,22.1,0000.9,0014.83,0020.93,0013.94
2021-09-04 20:37:00,,0829.2,5.00,0.00,29.2,27.6,00.0,38.3,31.0,22.2,0001.0,0014.90,0021.21,0014.02
2021-09-04 20:38:00,,0829.3,4.99,0.00,29.3,27.9,00.0,38.3,31.1,22.0,0000.9,0014.97,0021.32,0014.12
2021-09-04 20:39:00,,0829.2,5.01,0.00,29.3,28.2,00.0,38.3,31.2,21.7,0000.8,0015.09,0021.30,0014.21
2021-09-04 20:40:00,,0829.3,5.01,0.00,29.4,28.4,00.0,38.3,31.3,21.6,0000.8,0015.20,0021.63,0014.30
2021-09-04 20:41:00,,0829.2,5.00,0.00,29.5,28.6,00.0,38.4,31.4,21.8,0000.9,0015.24,0021.53,0014.37
2021-09-04 20:42:00,,0829.2,5.00,0.00,29.5,28.2,00.0,38.4,31.3,21.9,0001.0,0015.37,0021.42,0014.47
2021-09-04 20:43:00,,0829.2,5.00,0.00,29.4,26.5,00.0,38.4,30.8,22.2,0001.2,0015.38,0021.36,0014.54
2021-09-04 20:44:00,,0829.1,5.00,0.00,29.2,25.8,00.0,38.4,30.6,22.1,0000.9,0015.39,0022.09,0014.58
2021-09-04 20:45:00,,0829.1,5.00,0.00,29.2,26.2,00.0,38.3,30.7,22.4,0001.1,0015.42,0021.93,0014.62
2021-09-04 20:46:00,,0829.1,5.01,0.00,29.2,26.6,00.0,38.3,30.8,22.3,0001.0,0015.44,0021.78,0014.66
2021-09-04 20:47:00,,0829.1,5.00,0.00,29.2,27.1,00.0,38.3,30.9,22.2,0001.0,0015.45,0022.53,0014.69
2021-09-04 20:48:00,,0829.1,5.01,0.00,29.2,27.5,00.0,38.3,31.0,22.4,0000.8,0015.42,0022.31,0014.67
2021-09-04 20:49:00,,0829.1,4.99,0.00,29.2,27.8,00.0,38.3,31.1,22.7,0000.7,0015.36,0022.27,0014.62
2021-09-04 20:50:00,,0829.1,5.00,0.00,29.3,28.1,00.0,38.3,31.2,22.6,0000.9,0015.32,0022.38,0014.62
2021-09-04 20:51:00,,0829.1,4.99,0.00,29.4,28.3,00.0,38.3,31.3,22.0,0000.9,0015.30,0022.58,0014.63
2021-09-04 20:52:00,,0829.1,5.00,0.00,29.4,28.6,00.0,38.3,31.4,22.0,0001.1,0015.33,0022.28,0014.64
2021-09-04 20:53:00,,0829.1,5.00,0.00,29.5,28.7,00.0,38.4,31.4,21.6,0001.3,0015.27,0022.54,0014.63
2021-09-04 20:54:00,,0829.0,5.01,0.00,29.5,27.8,00.0,38.4,31.2,21.9,0001.1,0015.33,0022.84,0014.67
2021-09-04 20:55:00,,0829.0,5.00,0.00,29.3,26.1,00.0,38.4,30.7,21.7,0001.3,0015.39,0023.15,0014.70
2021-09-04 20:56:00,,0829.0,5.00,0.00,29.2,25.9,00.0,38.3,30.6,21.7,0001.3,0015.47,0023.89,0014.76
2021-09-04 20:57:00,,0829.0,5.00,0.00,29.2,26.3,00.0,38.3,30.7,21.8,0001.2,0015.53,0024.20,0014.80
2021-09-04 20:58:00,,0829.0,5.00,0.00,29.2,26.8,00.0,38.3,30.8,22.0,0001.0,0015.58,0023.55,0014.83
2021-09-04 20:59:00,,0829.0,5.01,0.00,29.2,27.2,00.0,38.3,30.9,22.3,0000.9,0015.62,0023.56,0014.86
